Regional Weather Roundup
Issued by NWS

Home | Current Version | Previous Version | Graphics & Text | Print | Product List | Glossary On
Versions: 1 2 3 4 5 6 7 8 9 10 11 12 13 14 15 16 17 18 19 20 21 22 23 24 25 26 27
000
ASUS45 KCYS 230010
RWRWY

WYOMING REGIONAL WEATHER ROUNDUP
NATIONAL WEATHER SERVICE CHEYENNE WY
500 PM MST SUN JAN 22 2017

NOTE:  "FAIR" INDICATES FEW OR NO CLOUDS BELOW 12,000 FEET
WITH NO SIGNIFICANT WEATHER AND/OR OBSTRUCTIONS TO VISIBILITY.

WYZ001-230100-
YELLOWSTONE NATIONAL PARK

CITY           SKY/WX    TMP DP  RH WIND       PRES   REMARKS
LK YELLOWSTONE   N/A     21  16  81 CALM      29.73F
6HR MIN TEMP:  19; 6HR MAX TEMP:  24; 6HR PCP:  0.02;

W YELLOWSTONE  NOT AVBL

$$
WYZ002>013-054>058-071-098>099-230100-
NORTHERN WYOMING

CITY           SKY/WX    TMP DP  RH WIND       PRES   REMARKS
JACKSON        CLOUDY    27  19  74 SW8       29.76F WCI  18
CODY           FAIR      29  19  66 SE10      29.74F WCI  20
GREYBULL       FAIR      18  11  74 W6        29.79S WCI  10
6HR MIN TEMP:  13; 6HR MAX TEMP:  24;

WORLAND        FAIR      23  18  81 CALM      29.77S
6HR MIN TEMP:  17; 6HR MAX TEMP:  31;

SHERIDAN       FAIR      33  22  63 SE12      29.76F WCI  24
6HR MIN TEMP:  32; 6HR MAX TEMP:  42;

BUFFALO        FAIR      30  20  66 NW7       29.75F WCI  23
6HR MIN TEMP:  30; 6HR MAX TEMP:  36;

GILLETTE       FAIR      31  23  72 S3        29.79S
6HR MIN TEMP:  31; 6HR MAX TEMP:  40;

HULETT         FAIR      30  21  69 S8        29.81F WCI  23
NEWCASTLE      FAIR      30  23  74 S7        29.83F WCI  23

$$
WYZ014>020-022>026-101>103-230100-
CENTRAL WYOMING

CITY           SKY/WX    TMP DP  RH WIND       PRES   REMARKS
BIG PINEY      CLOUDY    15  11  83 CALM      29.84S
6HR MIN TEMP:   7; 6HR MAX TEMP:  16;

PINEDALE       CLOUDY    18  14  86 SE3       29.85R
DUBOIS         NOT AVBL
LANDER         FAIR      23  14  68 CALM      29.75F
6HR MIN TEMP:  22; 6HR MAX TEMP:  31;

RIVERTON       FAIR      17  11  77 VRB3      29.76F
                                      6HR PCP: TRACE;

CASPER         FAIR      28  17  63 SW13      29.82R WCI  17
6HR MIN TEMP:  28; 6HR MAX TEMP:  36;

DOUGLAS        FAIR      32  13  45 CALM      29.84R
6HR MIN TEMP:  32; 6HR MAX TEMP:  42;


$$
WYZ021-027>030-104>119-230100-
SOUTHERN WYOMING

CITY           SKY/WX    TMP DP  RH WIND       PRES   REMARKS
EVANSTON       HVY SNOW  22  19  89 SE8       29.76F VSB 1/4 WCI  12
6HR MIN TEMP:  19; 6HR MAX TEMP:  29; 6HR PCP: TRACE;

ROCK SPRINGS   CLOUDY    25  16  68 S9        29.82F WCI  15
6HR MIN TEMP:  21; 6HR MAX TEMP:  27;

RAWLINS        FAIR      26  14  60 S8        29.86S WCI  18
6HR MIN TEMP:  25; 6HR MAX TEMP:  28;

LARAMIE        FAIR      23  11  60 SW20      29.83F WCI   8
6HR MIN TEMP:  22; 6HR MAX TEMP:  27;

CHEYENNE       FAIR      33   7  33 NW7       29.84F WCI  27
6HR MIN TEMP:  33; 6HR MAX TEMP:  37;

TORRINGTON     FAIR      38  13  35 W6        29.86S WCI  33
6HR MIN TEMP:  38; 6HR MAX TEMP:  46;


$$




USA.gov is the U.S. government's official web portal to all federal, state and local government web resources and services.